Location: Fontevrault
(47.1823°N, 0.0493°E)
Time: 03:23:33
(UTC+00:00)

Cosmos 1459 Rocket - Pass Details

Date: 25 October 2021
Orbit: 936 x 1000 km, 83.0° (Epoch: 01 December)

Event Time Altitude Azimuth Distance (km) Brightness Sun altitude
Rises 05:06:52 0° 360° (N) 3,612 7.0 -15.2°
Reaches altitude 10° 05:09:54 10° 14° (NNE) 2,660 6.4 -14.6°
Maximum altitude 05:14:41 24° 66° (ENE) 1,850 6.3 -13.8°
Drops below altitude 10° 05:19:27 10° 119° (ESE) 2,652 7.4 -13.0°
Sets 05:22:28 0° 133° (SE) 3,598 7.9 -12.5°
